Year,Month,Day,Hour,Minute,Value (Times are PST for windspeed in km/hr)
2013,08,30,00,00,44.90
2013,08,30,00,01,36.80
2013,08,30,00,02,44.10
2013,08,30,00,03,35.60
2013,08,30,00,04,34.90
2013,08,30,00,05,35.80
2013,08,30,00,06,33.70
2013,08,30,00,07,21.30
2013,08,30,00,08,19.50
2013,08,30,00,09,18.40
2013,08,30,00,10,37.40
2013,08,30,00,11,30.80
2013,08,30,00,12,12.00
2013,08,30,00,13,13.30
2013,08,30,00,14,26.10
2013,08,30,00,15,23.80
2013,08,30,00,16,37.10
2013,08,30,00,17,28.20
2013,08,30,00,18,24.50
2013,08,30,00,19,30.00
2013,08,30,00,20,22.90
2013,08,30,00,21,15.00
2013,08,30,00,22,24.00
2013,08,30,00,23,9.40
2013,08,30,00,24,10.30
2013,08,30,00,25,11.80
2013,08,30,00,26,8.10
2013,08,30,00,27,28.00
2013,08,30,00,28,27.90
2013,08,30,00,29,14.90
2013,08,30,00,30,19.30
2013,08,30,00,31,29.00
2013,08,30,00,32,18.90
2013,08,30,00,33,11.80
2013,08,30,00,34,9.20
2013,08,30,00,35,13.80
2013,08,30,00,36,11.40
2013,08,30,00,37,7.90
2013,08,30,00,38,14.10
2013,08,30,00,39,12.20
2013,08,30,00,40,14.20
2013,08,30,00,41,15.30
2013,08,30,00,42,15.90
2013,08,30,00,43,17.50
2013,08,30,00,44,15.20
2013,08,30,00,45,13.80
2013,08,30,00,46,24.10
2013,08,30,00,47,13.60
2013,08,30,00,48,16.80
2013,08,30,00,49,16.40
2013,08,30,00,50,18.40
2013,08,30,00,51,20.50
2013,08,30,00,52,27.60
2013,08,30,00,53,21.00
2013,08,30,00,54,37.90
2013,08,30,00,55,29.50
2013,08,30,00,56,28.50
2013,08,30,00,57,30.50
2013,08,30,00,58,32.70
2013,08,30,00,59,32.50
2013,08,30,01,00,17.30
2013,08,30,01,01,21.10
2013,08,30,01,02,33.60
2013,08,30,01,03,26.30
2013,08,30,01,04,19.90
2013,08,30,01,05,18.80
2013,08,30,01,06,16.30
2013,08,30,01,07,13.20
2013,08,30,01,08,12.60
2013,08,30,01,09,14.00
2013,08,30,01,10,15.60
2013,08,30,01,11,13.40
2013,08,30,01,12,13.10
2013,08,30,01,13,10.50
2013,08,30,01,14,16.70
2013,08,30,01,15,16.60
2013,08,30,01,16,15.70
2013,08,30,01,17,11.70
2013,08,30,01,18,14.20
2013,08,30,01,19,18.70
2013,08,30,01,20,18.80
2013,08,30,01,21,18.70
2013,08,30,01,22,17.10
2013,08,30,01,23,10.50
2013,08,30,01,24,12.10
2013,08,30,01,25,8.70
2013,08,30,01,26,14.60
2013,08,30,01,27,13.20
2013,08,30,01,28,13.40
2013,08,30,01,29,11.60
2013,08,30,01,30,11.10
2013,08,30,01,31,17.50
2013,08,30,01,32,10.10
2013,08,30,01,33,10.00
2013,08,30,01,34,16.70
2013,08,30,01,35,9.10
2013,08,30,01,36,14.90
2013,08,30,01,37,9.80
2013,08,30,01,38,11.20
2013,08,30,01,39,7.60
2013,08,30,01,40,7.10
2013,08,30,01,41,7.60
2013,08,30,01,42,8.60
2013,08,30,01,43,11.50
2013,08,30,01,44,12.20
2013,08,30,01,45,9.00
2013,08,30,01,46,12.50
2013,08,30,01,47,10.50
2013,08,30,01,48,11.70
2013,08,30,01,49,8.50
2013,08,30,01,50,7.90
2013,08,30,01,51,10.80
2013,08,30,01,52,1.90
2013,08,30,01,53,3.60
2013,08,30,01,54,7.10
2013,08,30,01,55,5.00
2013,08,30,01,56,6.00
2013,08,30,01,57,8.70
2013,08,30,01,58,10.00
2013,08,30,01,59,7.50
2013,08,30,02,00,4.80
2013,08,30,02,01,9.40
2013,08,30,02,02,6.90
2013,08,30,02,03,1.50
2013,08,30,02,04,3.10
2013,08,30,02,05,8.30
2013,08,30,02,06,5.60
2013,08,30,02,07,4.90
2013,08,30,02,08,19.40
2013,08,30,02,09,20.90
2013,08,30,02,10,27.40
2013,08,30,02,11,25.40
2013,08,30,02,12,30.40
2013,08,30,02,13,19.60
2013,08,30,02,14,14.10
2013,08,30,02,15,20.50
2013,08,30,02,16,10.90
2013,08,30,02,17,2.20
2013,08,30,02,18,9.00
2013,08,30,02,19,23.00
2013,08,30,02,20,19.80
2013,08,30,02,21,21.50
2013,08,30,02,22,22.80
2013,08,30,02,23,12.60
2013,08,30,02,24,12.50
2013,08,30,02,25,3.80
2013,08,30,02,26,9.30
2013,08,30,02,27,20.20
2013,08,30,02,28,16.20
2013,08,30,02,29,27.50
2013,08,30,02,30,19.60
2013,08,30,02,31,11.20
2013,08,30,02,32,2.80
2013,08,30,02,33,17.00
2013,08,30,02,34,8.90
2013,08,30,02,35,3.20
2013,08,30,02,36,14.20
2013,08,30,02,37,17.30
2013,08,30,02,38,10.30
2013,08,30,02,39,4.30
2013,08,30,02,40,5.90
2013,08,30,02,41,8.00
2013,08,30,02,42,2.00
2013,08,30,02,43,13.90
2013,08,30,02,44,2.80
2013,08,30,02,45,18.80
2013,08,30,02,46,4.80
2013,08,30,02,47,9.20
2013,08,30,02,48,4.70
2013,08,30,02,49,10.10
2013,08,30,02,50,16.10
2013,08,30,02,51,5.50
2013,08,30,02,52,12.10
2013,08,30,02,53,20.10
2013,08,30,02,54,5.20
2013,08,30,02,55,14.60
2013,08,30,02,56,23.60
2013,08,30,02,57,13.40
2013,08,30,02,58,27.70
2013,08,30,02,59,20.80
2013,08,30,03,00,14.80
2013,08,30,03,01,15.00
2013,08,30,03,02,18.30
2013,08,30,03,03,14.60
2013,08,30,03,04,15.30
2013,08,30,03,05,13.60
2013,08,30,03,06,8.40
2013,08,30,03,07,20.00
2013,08,30,03,08,21.40
2013,08,30,03,09,7.90
2013,08,30,03,10,13.00
2013,08,30,03,11,10.90
2013,08,30,03,12,8.40
2013,08,30,03,13,5.70
2013,08,30,03,14,6.80
2013,08,30,03,15,15.70
2013,08,30,03,16,0.20
2013,08,30,03,17,0.20
2013,08,30,03,18,0.50
2013,08,30,03,19,2.50
2013,08,30,03,20,0.80
2013,08,30,03,21,4.40
2013,08,30,03,22,7.00
2013,08,30,03,23,2.00
2013,08,30,03,24,3.70
2013,08,30,03,25,12.60
2013,08,30,03,26,10.30
2013,08,30,03,27,10.30
2013,08,30,03,28,9.70
2013,08,30,03,29,18.50
2013,08,30,03,30,23.10
2013,08,30,03,31,22.60
2013,08,30,03,32,22.20
2013,08,30,03,33,22.80
2013,08,30,03,34,11.40
2013,08,30,03,35,10.30
2013,08,30,03,36,12.80
2013,08,30,03,37,8.00
2013,08,30,03,38,10.60
2013,08,30,03,39,6.00
2013,08,30,03,40,0.20
2013,08,30,03,41,0.60
2013,08,30,03,42,8.60
2013,08,30,03,43,1.90
2013,08,30,03,44,7.50
2013,08,30,03,45,0.00
2013,08,30,03,46,0.10
2013,08,30,03,47,2.30
2013,08,30,03,48,10.00
2013,08,30,03,49,8.70
2013,08,30,03,50,16.40
2013,08,30,03,51,17.40
2013,08,30,03,52,12.50
2013,08,30,03,53,19.10
2013,08,30,03,54,16.80
2013,08,30,03,55,24.90
2013,08,30,03,56,20.00
2013,08,30,03,57,23.80
2013,08,30,03,58,26.90
2013,08,30,03,59,21.00
2013,08,30,04,00,22.30
2013,08,30,04,01,20.00
2013,08,30,04,02,16.50
2013,08,30,04,03,21.30
2013,08,30,04,04,14.60
2013,08,30,04,05,11.80
2013,08,30,04,06,17.90
2013,08,30,04,07,23.60
2013,08,30,04,08,14.90
2013,08,30,04,09,9.80
2013,08,30,04,10,3.70
2013,08,30,04,11,0.50
2013,08,30,04,12,0.60
2013,08,30,04,13,0.70
2013,08,30,04,14,4.20
2013,08,30,04,15,9.20
2013,08,30,04,16,7.50
2013,08,30,04,17,10.70
2013,08,30,04,18,14.80
2013,08,30,04,19,9.20
2013,08,30,04,20,3.10
2013,08,30,04,21,2.30
2013,08,30,04,22,2.00
2013,08,30,04,23,11.60
2013,08,30,04,24,9.20
2013,08,30,04,25,9.90
2013,08,30,04,26,3.70
2013,08,30,04,27,1.40
2013,08,30,04,28,8.80
2013,08,30,04,29,8.80
2013,08,30,04,30,13.40
2013,08,30,04,31,16.30
2013,08,30,04,32,19.90
2013,08,30,04,33,9.40
2013,08,30,04,34,11.70
2013,08,30,04,35,7.20
2013,08,30,04,36,8.80
2013,08,30,04,37,17.00
2013,08,30,04,38,7.60
2013,08,30,04,39,2.90
2013,08,30,04,40,1.90
2013,08,30,04,41,1.10
2013,08,30,04,42,13.70
2013,08,30,04,43,5.80
2013,08,30,04,44,3.50
2013,08,30,04,45,0.60
2013,08,30,04,46,1.10
2013,08,30,04,47,1.70
2013,08,30,04,48,0.30
2013,08,30,04,49,4.70
2013,08,30,04,50,4.00
2013,08,30,04,51,5.00
2013,08,30,04,52,1.70
2013,08,30,04,53,2.70
2013,08,30,04,54,0.20
2013,08,30,04,55,1.20
2013,08,30,04,56,0.20
2013,08,30,04,57,0.20
2013,08,30,04,58,0.00
2013,08,30,04,59,0.00
2013,08,30,05,00,2.00
2013,08,30,05,01,1.70
2013,08,30,05,02,5.60
2013,08,30,05,03,14.70
2013,08,30,05,04,4.30
2013,08,30,05,05,8.50
2013,08,30,05,06,7.30
2013,08,30,05,07,3.40
2013,08,30,05,08,0.30
2013,08,30,05,09,2.10
2013,08,30,05,10,13.20
2013,08,30,05,11,8.20
2013,08,30,05,12,4.60
2013,08,30,05,13,8.10
2013,08,30,05,14,4.70
2013,08,30,05,15,7.50
2013,08,30,05,16,2.00
2013,08,30,05,17,5.40
2013,08,30,05,18,6.80
2013,08,30,05,19,4.10
2013,08,30,05,20,9.30
2013,08,30,05,21,6.30
2013,08,30,05,22,0.30
2013,08,30,05,23,0.40
2013,08,30,05,24,0.10
2013,08,30,05,25,0.20
2013,08,30,05,26,1.00
2013,08,30,05,27,0.60
2013,08,30,05,28,2.30
2013,08,30,05,29,4.90
2013,08,30,05,30,8.30
2013,08,30,05,31,12.20
2013,08,30,05,32,16.00
2013,08,30,05,33,1.80
2013,08,30,05,34,3.20
2013,08,30,05,35,1.40
2013,08,30,05,36,1.80
2013,08,30,05,37,4.70
2013,08,30,05,38,7.80
2013,08,30,05,39,2.00
2013,08,30,05,40,0.00
2013,08,30,05,41,0.00
2013,08,30,05,42,0.30
2013,08,30,05,43,0.00
2013,08,30,05,44,0.00
2013,08,30,05,45,0.30
2013,08,30,05,46,0.00
2013,08,30,05,47,0.00
2013,08,30,05,48,0.00
2013,08,30,05,49,0.10
2013,08,30,05,50,0.00
2013,08,30,05,51,0.00
2013,08,30,05,52,0.00
2013,08,30,05,53,0.00
2013,08,30,05,54,0.00
2013,08,30,05,55,0.10
2013,08,30,05,56,0.00
2013,08,30,05,57,0.20
2013,08,30,05,58,0.70
2013,08,30,05,59,7.60
2013,08,30,06,00,4.00
2013,08,30,06,01,0.10
2013,08,30,06,02,0.00
2013,08,30,06,03,0.10
2013,08,30,06,04,0.60
2013,08,30,06,05,3.30
2013,08,30,06,06,1.60
2013,08,30,06,07,0.00
2013,08,30,06,08,0.10
2013,08,30,06,09,0.00
2013,08,30,06,10,0.00
2013,08,30,06,11,0.00
2013,08,30,06,12,0.00
2013,08,30,06,13,0.00
2013,08,30,06,14,0.00
2013,08,30,06,15,0.00
2013,08,30,06,16,0.00
2013,08,30,06,17,0.00
2013,08,30,06,18,0.00
2013,08,30,06,19,0.00
2013,08,30,06,20,0.00
2013,08,30,06,21,0.00
2013,08,30,06,22,0.00
2013,08,30,06,23,0.00
2013,08,30,06,24,0.00
2013,08,30,06,25,0.00
2013,08,30,06,26,0.00
2013,08,30,06,27,0.00
2013,08,30,06,28,0.00
2013,08,30,06,29,0.00
2013,08,30,06,30,0.00
2013,08,30,06,31,0.00
2013,08,30,06,32,0.10
2013,08,30,06,33,0.00
2013,08,30,06,34,0.00
2013,08,30,06,35,0.30
2013,08,30,06,36,0.00
2013,08,30,06,37,0.90
2013,08,30,06,38,6.80
2013,08,30,06,39,0.30
2013,08,30,06,40,5.40
2013,08,30,06,41,13.40
2013,08,30,06,42,5.50
2013,08,30,06,43,5.40
2013,08,30,06,44,5.90
2013,08,30,06,45,1.60
2013,08,30,06,46,1.40
2013,08,30,06,47,0.00
2013,08,30,06,48,0.10
2013,08,30,06,49,0.30
2013,08,30,06,50,1.30
2013,08,30,06,51,4.90
2013,08,30,06,52,1.40
2013,08,30,06,53,0.50
2013,08,30,06,54,1.50
2013,08,30,06,55,0.50
2013,08,30,06,56,0.20
2013,08,30,06,57,2.50
2013,08,30,06,58,0.40
2013,08,30,06,59,1.20
2013,08,30,07,00,0.10
2013,08,30,07,01,0.10
2013,08,30,07,02,0.00
2013,08,30,07,03,0.00
2013,08,30,07,04,0.00
2013,08,30,07,05,0.00
2013,08,30,07,06,0.00
2013,08,30,07,07,0.20
2013,08,30,07,08,0.20
2013,08,30,07,09,4.00
2013,08,30,07,10,3.60
2013,08,30,07,11,0.30
2013,08,30,07,12,0.10
2013,08,30,07,13,0.10
2013,08,30,07,14,0.00
2013,08,30,07,15,0.00
2013,08,30,07,16,0.10
2013,08,30,07,17,0.00
2013,08,30,07,18,0.00
2013,08,30,07,19,0.00
2013,08,30,07,20,0.00
2013,08,30,07,21,0.00
2013,08,30,07,22,0.90
2013,08,30,07,23,2.50
2013,08,30,07,24,0.00
2013,08,30,07,25,0.10
2013,08,30,07,26,0.00
2013,08,30,07,27,0.00
2013,08,30,07,28,0.00
2013,08,30,07,29,0.00
2013,08,30,07,30,0.00
2013,08,30,07,31,0.00
2013,08,30,07,32,0.00
2013,08,30,07,33,0.00
2013,08,30,07,34,0.00
2013,08,30,07,35,0.00
2013,08,30,07,36,0.00
2013,08,30,07,37,0.00
2013,08,30,07,38,0.00
2013,08,30,07,39,0.00
2013,08,30,07,40,0.00
2013,08,30,07,41,0.00
2013,08,30,07,42,0.00
2013,08,30,07,43,0.00
2013,08,30,07,44,0.00
2013,08,30,07,45,0.00
2013,08,30,07,46,0.00
2013,08,30,07,47,0.00
2013,08,30,07,48,0.00
2013,08,30,07,49,0.00
2013,08,30,07,50,0.00
2013,08,30,07,51,0.00
2013,08,30,07,52,0.00
2013,08,30,07,53,0.00
2013,08,30,07,54,0.00
2013,08,30,07,55,0.00
2013,08,30,07,56,0.10
2013,08,30,07,57,0.20
2013,08,30,07,58,0.10
2013,08,30,07,59,0.50
2013,08,30,08,00,0.00
2013,08,30,08,01,0.00
2013,08,30,08,02,1.40
2013,08,30,08,03,5.10
2013,08,30,08,04,3.10
2013,08,30,08,05,3.90
2013,08,30,08,06,2.10
2013,08,30,08,07,6.40
2013,08,30,08,08,2.60
2013,08,30,08,09,0.80
2013,08,30,08,10,2.10
2013,08,30,08,11,2.50
2013,08,30,08,12,2.70
2013,08,30,08,13,5.70
2013,08,30,08,14,5.70
2013,08,30,08,15,4.50
2013,08,30,08,16,3.90
2013,08,30,08,17,0.60
2013,08,30,08,18,19.20
2013,08,30,08,19,14.20
2013,08,30,08,20,13.10
2013,08,30,08,21,6.30
2013,08,30,08,22,3.40
2013,08,30,08,23,14.40
2013,08,30,08,24,3.10
2013,08,30,08,25,0.00
2013,08,30,08,26,1.10
2013,08,30,08,27,4.90
2013,08,30,08,28,0.00
2013,08,30,08,29,0.00
2013,08,30,08,30,0.00
2013,08,30,08,31,0.00
2013,08,30,08,32,0.00
2013,08,30,08,33,0.80
2013,08,30,08,34,0.80
2013,08,30,08,35,1.50
2013,08,30,08,36,5.60
2013,08,30,08,37,2.40
2013,08,30,08,38,4.40
2013,08,30,08,39,0.80
2013,08,30,08,40,3.60
2013,08,30,08,41,4.40
2013,08,30,08,42,0.20
2013,08,30,08,43,5.60
2013,08,30,08,44,3.60
2013,08,30,08,45,4.30
2013,08,30,08,46,7.20
2013,08,30,08,47,13.60
2013,08,30,08,48,16.20
2013,08,30,08,49,15.30
2013,08,30,08,50,14.20
2013,08,30,08,51,16.80
2013,08,30,08,52,18.70
2013,08,30,08,53,23.40
2013,08,30,08,54,18.30
2013,08,30,08,55,11.30
2013,08,30,08,56,36.90
2013,08,30,08,57,23.70
2013,08,30,08,58,10.90
2013,08,30,08,59,19.60
2013,08,30,09,00,14.90
2013,08,30,09,01,18.40
2013,08,30,09,02,6.10
2013,08,30,09,03,9.90
2013,08,30,09,04,3.80
2013,08,30,09,05,16.30
2013,08,30,09,06,40.10
2013,08,30,09,07,29.70
2013,08,30,09,08,16.60
2013,08,30,09,09,28.30
2013,08,30,09,10,32.00
2013,08,30,09,11,29.60
2013,08,30,09,12,35.10
2013,08,30,09,13,16.60
2013,08,30,09,14,10.70
2013,08,30,09,15,5.20
2013,08,30,09,16,5.30
2013,08,30,09,17,11.70
2013,08,30,09,18,29.50
2013,08,30,09,19,11.20
2013,08,30,09,20,20.30
2013,08,30,09,21,7.50
2013,08,30,09,22,4.40
2013,08,30,09,23,8.10
2013,08,30,09,24,20.40
2013,08,30,09,25,5.20
2013,08,30,09,26,19.70
2013,08,30,09,27,28.60
2013,08,30,09,28,19.80
2013,08,30,09,29,14.40
2013,08,30,09,30,30.00
2013,08,30,09,31,26.40
2013,08,30,09,32,27.00
2013,08,30,09,33,15.30
2013,08,30,09,34,18.40
2013,08,30,09,35,26.50
2013,08,30,09,36,21.50
2013,08,30,09,37,15.50
2013,08,30,09,38,8.60
2013,08,30,09,39,34.60
2013,08,30,09,40,26.50
2013,08,30,09,41,24.60
2013,08,30,09,42,17.00
2013,08,30,09,43,18.30
2013,08,30,09,44,10.60
2013,08,30,09,45,28.50
2013,08,30,09,46,13.60
2013,08,30,09,47,30.00
2013,08,30,09,48,31.20
2013,08,30,09,49,15.20
2013,08,30,09,50,32.30
2013,08,30,09,51,23.30
2013,08,30,09,52,22.20
2013,08,30,09,53,29.30
2013,08,30,09,54,20.90
2013,08,30,09,55,29.10
2013,08,30,09,56,20.40
2013,08,30,09,57,26.90
2013,08,30,09,58,22.60
2013,08,30,09,59,27.60
2013,08,30,10,00,23.10
2013,08,30,10,01,25.50
2013,08,30,10,02,32.00
2013,08,30,10,03,23.50
2013,08,30,10,04,24.10
2013,08,30,10,05,19.80
2013,08,30,10,06,18.80
2013,08,30,10,07,31.80
2013,08,30,10,08,14.50
2013,08,30,10,09,29.00
2013,08,30,10,10,17.90
2013,08,30,10,11,28.80
2013,08,30,10,12,34.80
2013,08,30,10,13,26.30
2013,08,30,10,14,17.20
2013,08,30,10,15,27.80
2013,08,30,10,16,28.90
2013,08,30,10,17,21.40
2013,08,30,10,18,28.10
2013,08,30,10,19,12.50
2013,08,30,10,20,24.50
2013,08,30,10,21,35.10
2013,08,30,10,22,26.30
2013,08,30,10,23,13.60
2013,08,30,10,24,27.80
2013,08,30,10,25,33.20
2013,08,30,10,26,34.40
2013,08,30,10,27,32.60
2013,08,30,10,28,43.50
2013,08,30,10,29,22.80
2013,08,30,10,30,16.30
2013,08,30,10,31,31.20
2013,08,30,10,32,28.10
2013,08,30,10,33,40.60
2013,08,30,10,34,30.00
2013,08,30,10,35,38.20
2013,08,30,10,36,25.90
2013,08,30,10,37,33.10
2013,08,30,10,38,35.50
2013,08,30,10,39,36.20
2013,08,30,10,40,33.60
2013,08,30,10,41,35.40
2013,08,30,10,42,35.30
2013,08,30,10,43,28.60
2013,08,30,10,44,23.70
2013,08,30,10,45,14.10
2013,08,30,10,46,32.30
2013,08,30,10,47,41.60
2013,08,30,10,48,29.00
2013,08,30,10,49,14.20
2013,08,30,10,50,19.80
2013,08,30,10,51,15.90
2013,08,30,10,52,27.00
2013,08,30,10,53,25.00
2013,08,30,10,54,15.40
2013,08,30,10,55,25.90
2013,08,30,10,56,29.90
2013,08,30,10,57,13.00
2013,08,30,10,58,14.20
2013,08,30,10,59,27.80
2013,08,30,11,00,28.60
2013,08,30,11,01,31.60
2013,08,30,11,02,27.00
2013,08,30,11,03,14.90
2013,08,30,11,04,24.20
2013,08,30,11,05,6.30
2013,08,30,11,06,10.70
2013,08,30,11,07,9.10
2013,08,30,11,08,15.30
2013,08,30,11,09,16.30
2013,08,30,11,10,18.50
2013,08,30,11,11,13.00
2013,08,30,11,12,9.50
2013,08,30,11,13,10.90
2013,08,30,11,14,12.60
2013,08,30,11,15,18.00
2013,08,30,11,16,15.50
2013,08,30,11,17,14.50
2013,08,30,11,18,7.00
2013,08,30,11,19,8.70
2013,08,30,11,20,22.30
2013,08,30,11,21,18.10
2013,08,30,11,22,20.80
2013,08,30,11,23,31.40
2013,08,30,11,24,15.80
2013,08,30,11,25,2.80
2013,08,30,11,26,5.60
2013,08,30,11,27,11.30
2013,08,30,11,28,16.40
2013,08,30,11,29,8.00
2013,08,30,11,30,13.40
2013,08,30,11,31,13.10
2013,08,30,11,32,12.80
2013,08,30,11,33,9.40
2013,08,30,11,34,30.20
2013,08,30,11,35,26.30
2013,08,30,11,36,36.30
2013,08,30,11,37,40.00
2013,08,30,11,38,25.50
2013,08,30,11,39,21.90
2013,08,30,11,40,9.60
2013,08,30,11,41,10.70
2013,08,30,11,42,31.00
2013,08,30,11,43,20.90
2013,08,30,11,44,20.80
2013,08,30,11,45,23.70
2013,08,30,11,46,10.80
2013,08,30,11,47,21.20
2013,08,30,11,48,19.50
2013,08,30,11,49,24.50
2013,08,30,11,50,27.20
2013,08,30,11,51,15.80
2013,08,30,11,52,22.40
2013,08,30,11,53,18.60
2013,08,30,11,54,20.80
2013,08,30,11,55,4.90
2013,08,30,11,56,2.70
2013,08,30,11,57,0.00
2013,08,30,11,58,5.40
2013,08,30,11,59,12.70
2013,08,30,12,00,12.10
2013,08,30,12,01,9.10
2013,08,30,12,02,23.80
2013,08,30,12,03,34.80
2013,08,30,12,04,27.80
2013,08,30,12,05,15.70
2013,08,30,12,06,2.30
2013,08,30,12,07,6.90
2013,08,30,12,08,18.90
2013,08,30,12,09,26.20
2013,08,30,12,10,11.00
2013,08,30,12,11,6.40
2013,08,30,12,12,10.10
2013,08,30,12,13,11.30
2013,08,30,12,14,18.50
2013,08,30,12,15,10.00
2013,08,30,12,16,4.40
2013,08,30,12,17,3.60
2013,08,30,12,18,24.30
2013,08,30,12,19,5.20
2013,08,30,12,20,7.90
2013,08,30,12,21,20.10
2013,08,30,12,22,29.50
2013,08,30,12,23,20.60
2013,08,30,12,24,3.20
2013,08,30,12,25,5.50
2013,08,30,12,26,16.90
2013,08,30,12,27,3.70
2013,08,30,12,28,29.70
2013,08,30,12,29,24.30
2013,08,30,12,30,15.10
2013,08,30,12,31,24.80
2013,08,30,12,32,23.80
2013,08,30,12,33,22.70
2013,08,30,12,34,13.80
2013,08,30,12,35,22.90
2013,08,30,12,36,9.20
2013,08,30,12,37,12.20
2013,08,30,12,38,20.40
2013,08,30,12,39,15.60
2013,08,30,12,40,15.30
2013,08,30,12,41,24.20
2013,08,30,12,42,18.50
2013,08,30,12,43,27.10
2013,08,30,12,44,19.30
2013,08,30,12,45,6.20
2013,08,30,12,46,17.50
2013,08,30,12,47,5.80
2013,08,30,12,48,16.40
2013,08,30,12,49,40.00
2013,08,30,12,50,12.10
2013,08,30,12,51,21.30
2013,08,30,12,52,10.40
2013,08,30,12,53,1.90
2013,08,30,12,54,6.70
2013,08,30,12,55,9.40
2013,08,30,12,56,20.10
2013,08,30,12,57,12.00
2013,08,30,12,58,6.00
2013,08,30,12,59,21.50
2013,08,30,13,00,19.30
2013,08,30,13,01,17.10
2013,08,30,13,02,18.60
2013,08,30,13,03,20.60
2013,08,30,13,04,21.40
2013,08,30,13,05,24.90
2013,08,30,13,06,20.80
2013,08,30,13,07,27.70
2013,08,30,13,08,30.60
2013,08,30,13,09,21.00
2013,08,30,13,10,22.40
2013,08,30,13,11,10.20
2013,08,30,13,12,6.90
2013,08,30,13,13,5.60
2013,08,30,13,14,6.00
2013,08,30,13,15,13.40
2013,08,30,13,16,4.20
2013,08,30,13,17,20.50
2013,08,30,13,18,13.30
2013,08,30,13,19,18.80
2013,08,30,13,20,24.20
2013,08,30,13,21,16.70
2013,08,30,13,22,20.30
2013,08,30,13,23,18.30
2013,08,30,13,24,17.10
2013,08,30,13,25,7.20
2013,08,30,13,26,5.10
2013,08,30,13,27,24.50
2013,08,30,13,28,19.70
2013,08,30,13,29,16.50
2013,08,30,13,30,4.80
2013,08,30,13,31,14.50
2013,08,30,13,32,34.50
2013,08,30,13,33,11.40
2013,08,30,13,34,18.60
2013,08,30,13,35,6.80
2013,08,30,13,36,1.30
2013,08,30,13,37,8.50
2013,08,30,13,38,31.30
2013,08,30,13,39,46.80
2013,08,30,13,40,61.00
2013,08,30,13,41,55.70
2013,08,30,13,42,48.20
2013,08,30,13,43,28.20
2013,08,30,13,44,21.90
2013,08,30,13,45,11.50
2013,08,30,13,46,15.10
2013,08,30,13,47,17.90
2013,08,30,13,48,23.50
2013,08,30,13,49,7.20
2013,08,30,13,50,5.60
2013,08,30,13,51,3.80
2013,08,30,13,52,10.80
2013,08,30,13,53,12.10
2013,08,30,13,54,24.80
2013,08,30,13,55,27.30
2013,08,30,13,56,21.80
2013,08,30,13,57,18.60
2013,08,30,13,58,16.70
2013,08,30,13,59,10.90
2013,08,30,14,00,6.30
2013,08,30,14,01,3.60
2013,08,30,14,02,7.30
2013,08,30,14,03,4.10
2013,08,30,14,04,12.40
2013,08,30,14,05,15.20
2013,08,30,14,06,21.00
2013,08,30,14,07,23.10
2013,08,30,14,08,14.80
2013,08,30,14,09,17.10
2013,08,30,14,10,6.60
2013,08,30,14,11,20.00
2013,08,30,14,12,14.20
2013,08,30,14,13,8.10
2013,08,30,14,14,4.10
2013,08,30,14,15,18.30
2013,08,30,14,16,8.90
2013,08,30,14,17,13.30
2013,08,30,14,18,1.20
2013,08,30,14,19,0.20
2013,08,30,14,20,0.00
2013,08,30,14,21,15.00
2013,08,30,14,22,1.80
2013,08,30,14,23,17.50
2013,08,30,14,24,20.40
2013,08,30,14,25,21.40
2013,08,30,14,26,14.50
2013,08,30,14,27,11.80
2013,08,30,14,28,4.30
2013,08,30,14,29,4.70
2013,08,30,14,30,9.10
2013,08,30,14,31,10.70
2013,08,30,14,32,8.00
2013,08,30,14,33,7.30
2013,08,30,14,34,4.30
2013,08,30,14,35,3.20
2013,08,30,14,36,1.20
2013,08,30,14,37,1.00
2013,08,30,14,38,17.00
2013,08,30,14,39,8.40
2013,08,30,14,40,2.00
2013,08,30,14,41,2.00
2013,08,30,14,42,4.00
2013,08,30,14,43,5.60
2013,08,30,14,44,2.00
2013,08,30,14,45,5.80
2013,08,30,14,46,10.00
2013,08,30,14,47,19.50
2013,08,30,14,48,14.00
2013,08,30,14,49,2.80
2013,08,30,14,50,18.00
2013,08,30,14,51,2.60
2013,08,30,14,52,2.70
2013,08,30,14,53,1.90
2013,08,30,14,54,0.60
2013,08,30,14,55,0.40
2013,08,30,14,56,0.70
2013,08,30,14,57,2.80
2013,08,30,14,58,1.80
2013,08,30,14,59,12.60
2013,08,30,15,00,5.50
2013,08,30,15,01,1.80
2013,08,30,15,02,1.00
2013,08,30,15,03,1.80
2013,08,30,15,04,4.70
2013,08,30,15,05,3.20
2013,08,30,15,06,11.80
2013,08,30,15,07,5.10
2013,08,30,15,08,3.80
2013,08,30,15,09,0.20
2013,08,30,15,10,0.20
2013,08,30,15,11,0.90
2013,08,30,15,12,5.20
2013,08,30,15,13,4.30
2013,08,30,15,14,2.70
2013,08,30,15,15,8.60
2013,08,30,15,16,18.90
2013,08,30,15,17,1.90
2013,08,30,15,18,3.10
2013,08,30,15,19,13.20
2013,08,30,15,20,13.90
2013,08,30,15,21,7.80
2013,08,30,15,22,2.10
2013,08,30,15,23,18.30
2013,08,30,15,24,31.90
2013,08,30,15,25,29.60
2013,08,30,15,26,38.40
2013,08,30,15,27,12.50
2013,08,30,15,28,13.10
2013,08,30,15,29,10.80
2013,08,30,15,30,17.90
2013,08,30,15,31,20.40
2013,08,30,15,32,23.10
2013,08,30,15,33,8.60
2013,08,30,15,34,9.60
2013,08,30,15,35,12.80
2013,08,30,15,36,15.10
2013,08,30,15,37,10.40
2013,08,30,15,38,4.80
2013,08,30,15,39,6.00
2013,08,30,15,40,19.50
2013,08,30,15,41,21.60
2013,08,30,15,42,31.60
2013,08,30,15,43,20.20
2013,08,30,15,44,11.40
2013,08,30,15,45,1.40
2013,08,30,15,46,1.40
2013,08,30,15,47,7.60
2013,08,30,15,48,21.80
2013,08,30,15,49,23.00
2013,08,30,15,50,16.50
2013,08,30,15,51,6.40
2013,08,30,15,52,0.10
2013,08,30,15,53,2.30
2013,08,30,15,54,1.60
2013,08,30,15,55,4.20
2013,08,30,15,56,11.40
2013,08,30,15,57,15.80
2013,08,30,15,58,21.80
2013,08,30,15,59,13.90
2013,08,30,16,00,10.30
2013,08,30,16,01,20.00
2013,08,30,16,02,26.40
2013,08,30,16,03,32.00
2013,08,30,16,04,31.30
2013,08,30,16,05,12.90
2013,08,30,16,06,16.50
2013,08,30,16,07,8.80
2013,08,30,16,08,19.10
2013,08,30,16,09,21.80
2013,08,30,16,10,3.90
2013,08,30,16,11,3.30
2013,08,30,16,12,1.40
2013,08,30,16,13,13.60
2013,08,30,16,14,4.70
2013,08,30,16,15,9.20
2013,08,30,16,16,10.20
2013,08,30,16,17,7.50
2013,08,30,16,18,20.20
2013,08,30,16,19,20.30
2013,08,30,16,20,13.30
2013,08,30,16,21,8.80
2013,08,30,16,22,6.30
2013,08,30,16,23,4.40
2013,08,30,16,24,4.70
2013,08,30,16,25,7.90
2013,08,30,16,26,17.00
2013,08,30,16,27,2.60
2013,08,30,16,28,0.50
2013,08,30,16,29,1.10
2013,08,30,16,30,9.90
2013,08,30,16,31,2.60
2013,08,30,16,32,7.00
2013,08,30,16,33,9.00
2013,08,30,16,34,5.50
2013,08,30,16,35,16.80
2013,08,30,16,36,12.80
2013,08,30,16,37,23.40
2013,08,30,16,38,19.10
2013,08,30,16,39,14.90
2013,08,30,16,40,3.00
2013,08,30,16,41,6.20
2013,08,30,16,42,11.70
2013,08,30,16,43,18.50
2013,08,30,16,44,28.50
2013,08,30,16,45,18.90
2013,08,30,16,46,8.00
2013,08,30,16,47,4.60
2013,08,30,16,48,13.00
2013,08,30,16,49,5.90
2013,08,30,16,50,6.10
2013,08,30,16,51,1.70
2013,08,30,16,52,1.80
2013,08,30,16,53,8.70
2013,08,30,16,54,7.60
2013,08,30,16,55,11.90
2013,08,30,16,56,9.50
2013,08,30,16,57,7.50
2013,08,30,16,58,2.50
2013,08,30,16,59,10.40
2013,08,30,17,00,6.70
2013,08,30,17,01,1.90
2013,08,30,17,02,15.60
2013,08,30,17,03,4.50
2013,08,30,17,04,11.00
2013,08,30,17,05,6.50
2013,08,30,17,06,10.70
2013,08,30,17,07,8.30
2013,08,30,17,08,11.90
2013,08,30,17,09,13.50
2013,08,30,17,10,14.80
2013,08,30,17,11,14.10
2013,08,30,17,12,5.20
2013,08,30,17,13,8.60
2013,08,30,17,14,12.20
2013,08,30,17,15,12.20
2013,08,30,17,16,6.80
2013,08,30,17,17,13.50
2013,08,30,17,18,13.10
2013,08,30,17,19,26.70
2013,08,30,17,20,22.70
2013,08,30,17,21,17.30
2013,08,30,17,22,8.00
2013,08,30,17,23,9.30
2013,08,30,17,24,0.60
2013,08,30,17,25,10.30
2013,08,30,17,26,20.10
2013,08,30,17,27,11.60
2013,08,30,17,28,8.00
2013,08,30,17,29,6.50
2013,08,30,17,30,3.50
2013,08,30,17,31,2.90
2013,08,30,17,32,2.00
2013,08,30,17,33,2.00
2013,08,30,17,34,11.10
2013,08,30,17,35,10.10
2013,08,30,17,36,0.70
2013,08,30,17,37,0.30
2013,08,30,17,38,12.80
2013,08,30,17,39,9.30
2013,08,30,17,40,16.00
2013,08,30,17,41,13.10